Regional Weather Roundup
Issued by NWS Midland/Odessa, TX

Skip options and go directly to product.
Home | Oldest Version | Previous Version | Current Version | All | Text Only | Save Text | Print | Product List | Glossary Off

Skip product version selection by date and time.   

254
ASUS44 KMAF 252210
RWRMAF
MIDLAND AREA WEATHER ROUNDUP
NATIONAL WEATHER SERVICE MIDLAND TX
500 PM CDT SUN SEP 25 2016

...IN SOUTHWEST TEXAS AND SOUTHEAST NEW MEXICO...

CITY           SKY/WX    TMP DP  RH WIND       PRES   REMARKS
ALPINE         CLOUDY    67  58  72 N15       30.21S
ANDREWS        NOT AVBL
ARTESIA        CLOUDY    68  48  49 NE14      30.24S
BIG SPRING     CLOUDY    63  61  93 N17G29    30.17R
CARLSBAD       LGT RAIN  67  53  61 N13       30.20R
DRYDEN           N/A     74  66  76 N13       30.02S
FORT STOCKTON  CLOUDY    70  65  84 NE7       30.10R
GUAD PASS      LGT RAIN  57  54  89 NE31G40   30.26R
HOBBS          LGT RAIN  59  52  77 NE15      30.24R
MARFA          CLOUDY   N/A N/A N/A N18G24    30.19S
MIDLAND AIRPK  LGT RAIN  62  59  89 N17G24    30.16R
MIDLAND INTL   CLOUDY    62  59  90 N22G29    30.15R
ODESSA         LGT RAIN  61  58  90 NE22G29   30.16S
PECOS          HVY RAIN  65  63  93 N17G31    30.13S
PRESIDIO       CLOUDY    68  64  88 S6        30.07F
SEMINOLE       CLOUDY    58  55  88 NE14G22   30.23R
SNYDER           N/A     60  58  92 N6        30.16S
WINK           CLOUDY    61  59  93 NE21G32   30.15R FOG
$$
...OTHER STATIONS IN TEXAS...

CITY           SKY/WX    TMP DP  RH WIND       PRES   REMARKS
ABILENE        LGT RAIN  69  68  96 N10       30.11S
AMARILLO       MOSUNNY   73  40  30 NE22G29   30.27F
AUSTIN         TSTM      73  71  93 NW3       29.97R FOG
BROWNSVILLE    MOSUNNY   92  74  55 SE18G24   29.84F HX 101
CORPUS CHRISTI CLOUDY    89  76  65 E20G25    29.85F HX 100
DALLAS FTW     CLOUDY    79  73  82 N8        30.01F
DEL RIO        CLOUDY    75  69  81 N5        29.96S
EL PASO        PTSUNNY   71  46  40 E20G26    30.15R
HOUSTON INT    RAIN      77  74  90 NW3       29.98S
LUBBOCK        CLOUDY    64  48  56 NE18G29   30.22F
SAN ANGELO     CLOUDY    70  66  87 N14       30.06R
SAN ANTONIO    TSTM      72  70  93 NW12      29.97R FOG
WACO           CLOUDY    78  73  84 NE7       30.00R
WICHITA FALLS  NOT AVBL
$$
...OTHER LOCATIONS IN NEW MEXICO...

CITY           SKY/WX    TMP DP  RH WIND       PRES   REMARKS
ALAMAGORDO     CLOUDY    75  34  22 N6        30.16F
ALBUQUERQUE    MOSUNNY   73  34  23 SE21G29   30.30S
CANNON AFB     SUNNY     72  40  31 NE23G33   30.27F
CLOVIS         MOSUNNY   72  43  35 NE21G30   30.28S
HOLLOMAN AFB   CLOUDY    77  35  21 VRB3      30.14F
ROSWELL        CLOUDY    71  44  37 NE13      30.25R
RUIDOSO        CLOUDY    57  39  51 E17G26    30.40R
SANTA FE       CLOUDY    72  32  23 SE16G25   30.34S
TRUTH OR CONSE MOSUNNY   75  35  23 N18G24    30.20F
TUCUMCARI      SUNNY     76  35  22 NE21G28   30.28F
$$

USA.gov is the U.S. government's official web portal to all federal, state and local government web resources and services.